This is the latest recevied weather packets stored in our database for station/object YD8XVB-13. If no packets are shown the sender has not sent any weather packets the latest 10 day(s).
| Time | Temp. | Humidity | Pressure | Rain* | Wind** | Luminosity | Snow |
|---|---|---|---|---|---|---|---|
| 1777190337 | 32.78° C | 95% | 0 hPa | - | - | 0 W/m² | - |
| 1777190037 | 33.89° C | 95% | 0 hPa | - | - | 0 W/m² | - |
| 1777189737 | 33.33° C | 95% | 0 hPa | - | - | 0 W/m² | - |
| 1777189437 | 33.89° C | 95% | 0 hPa | - | - | 0 W/m² | - |
| 1777189137 | 33.89° C | 95% | 0 hPa | - | - | 0 W/m² | - |
| 1777188836 | 33.89° C | 95% | 0 hPa | - | - | 0 W/m² | - |
| 1777188536 | 34.44° C | 95% | 0 hPa | - | - | 0 W/m² | - |
| 1777188236 | 33.89° C | 95% | 0 hPa | - | - | 0 W/m² | - |
| 1777187936 | 33.89° C | 95% | 0 hPa | - | - | 0 W/m² | - |
| 1777187636 | 34.44° C | 91% | 0 hPa | - | - | 0 W/m² | - |
| 1777187336 | 33.89° C | 95% | 0 hPa | - | - | 0 W/m² | - |
| 1777187036 | 33.89° C | 95% | 0 hPa | - | - | 0 W/m² | - |
| 1777186736 | 33.89° C | 86% | 0 hPa | - | - | 0 W/m² | - |
| 1777186436 | 33.89° C | 95% | 0 hPa | - | - | 0 W/m² | - |
| 1777186137 | 33.33° C | 95% | 0 hPa | - | - | 0 W/m² | - |
| 1777185836 | 33.33° C | 95% | 0 hPa | - | - | 0 W/m² | - |
| 1777185536 | 35° C | 95% | 0 hPa | - | - | 0 W/m² | - |
| 1777185236 | 35.56° C | 11% | 0 hPa | - | - | 0 W/m² | - |
| 1777184936 | 35.56° C | 10% | 0 hPa | - | - | 0 W/m² | - |
| 1777184636 | 35.56° C | 11% | 0 hPa | - | - | 0 W/m² | - |
| 1777184336 | 36.67° C | 11% | 0 hPa | - | - | 0 W/m² | - |
| 1777184036 | 37.22° C | 11% | 0 hPa | - | - | 0 W/m² | - |
| 1777183736 | 37.22° C | 26% | 0 hPa | - | - | 0 W/m² | - |
| 1777183435 | 35.56° C | 11% | 0 hPa | - | - | 0 W/m² | - |
| 1777183136 | 37.78° C | 12% | 0 hPa | - | - | 0 W/m² | - |
* Rain since midnight (hover to see other rain measurements)
** Current wind speed in m/s (hover to see current wind gust speed)